Main page
METAR-TAF:

METAR-TAF

Airports :

Marília Airport

Marília, São Paulo, Brazil

latitude: 22-11-44S, longitude: 049-55-37W, elevation: 647 m

Current weather observation

The report was made 6 hours and 26 minutes ago, at 18:00 UTC
Wind 10 kt from the North/Northwest
Temperature 30°C
Humidity 62%
Pressure 1012 hPa
Visibility 10 km or more
Scattered clouds at a height of 4000 ft
Scattered clouds at a height of 10000 ft

METAR: SBML 181800Z 33010KT 9999 SCT040 SCT100 30/22 Q1012

Time: 21:26 (00:26 UTC)


TAF: missing

Weather observations and forecasts of more than 4000 airports (METAR and TAF reports).

The available stations are represented by yellow and red dots on the map.

Hover mouse over dot to see the name of the station.

Then click to see weather observations and forecasts.

To change the map : click on the green buttons with a black cross to zoom in, on the green button with a dash to zoom out, or on the green arrows for adjacent maps.


METAR-TAF: